Location: Beuerbach
(48.1459°N, 10.9174°E)
Time: 01:32:55
(UTC+00:00)

Meteor 1-21 - Pass Details

Date: 06 August 2024
Orbit: 845 x 885 km, 81.2° (Epoch: 09 September)

Event Time Altitude Azimuth Distance (km) Brightness Sun altitude
Rises 01:00:52 0° 348° (NNW) 3,418 8.2 -21.6°
Reaches altitude 10° 01:03:17 10° 348° (NNW) 2,478 7.3 -21.4°
Maximum altitude 01:08:55 90° 60° (ENE) 853 4.1 -21.0°
Enters shadow 01:11:31 34° 170° (S) 1,372 4.9 -20.8°
